Regional Weather Roundup
Issued by NWS

Home | Current Version | Previous Version | Text Only | Print | Product List | Glossary On
Versions: 1 2 3 4 5 6 7 8 9 10 11 12 13 14 15 16 17 18 19 20 21 22 23 24 25 26 27 28 29 30 31 32 33 34 35 36 37 38 39 40 41 42 43 44 45 46 47 48 49 50
000
ASCA44 KEWX 020020
RWRMX

LATIN AMERICA AND CARIBBEAN REGIONAL WEATHER ROUNDUP
NATIONAL WEATHER SERVICE AUSTIN/SAN ANTONIO TX
700 PM CDT WED JUL 01 2015

NOTE: "FAIR" INDICATED FEW OR NO CLOUDS BELOW 12,000 FEET WITH NO
SIGNIFICANT WEATHER AND/OR OBSTRUCTIONS TO VISIBILITY.

BAJA CALIFORNIA

CITY           SKY/WX    TMP DP  RH WIND       PRES   REMARKS
LORETO         MOSUNNY   97  68  38 CALM      29.78F HX 101
LA PAZ         SUNNY     91  66  43 N13       29.81F HX  94
MEXICALI       CLOUDY    90  66  45 SE12      29.84F HX  92
S.J. DEL CABO    N/A    N/A N/A N/A MISG        N/A
TIJUANA        PTSUNNY   75  61  60 NW8       29.94S

NORTHWESTERN MEXICO

CITY           SKY/WX    TMP DP  RH WIND       PRES   REMARKS
CULIACAN       PTSUNNY   93  77  59 S14       29.82S THUNDER HX 107
DURANGO        CLOUDY    63  59  88 SW2       30.24S
GUAYMAS        MOSUNNY   90  75  62 W16       29.76F HX 100
HERMOSILLO     MOSUNNY   99  66  34 S8        29.84F HX 102
CD. JUAREZ     MOSUNNY   99  57  25 SW7       29.90F HX  97
LOS MOCHIS     PTSUNNY   90  68  48 SW17      29.81F HX  93
OBREGON        MOSUNNY   95  70  43 W14       29.77F HX 101

NORTHEASTERN MEXICO

CITY           SKY/WX    TMP DP  RH WIND       PRES   REMARKS
CHIHUAHUA      PTSUNNY   91  48  22 E6        30.01F
MATAMOROS      PTSUNNY   81  70  69 S6        30.01F
MONCLOVA         N/A    N/A N/A N/A MISG        N/A
MONTERREY      CLOUDY    77  68  73 E9        29.96R
NUEVO LAREDO   MOSUNNY   88  66  48 S9        29.96F HX  90
PIEDRAS NEGRAS MOSUNNY   86  72  62 SE12      29.95F HX  92
REYNOSA        MOSUNNY   79  61  53 S12       29.98R
SALTILLO       PTSUNNY   72  61  68 N12       30.14
TORREON        PTSUNNY   88  57  35 CALM      29.99F
CD. VICTORIA   CLOUDY    77  63  61 S5        29.99F

WESTERN MEXICO

CITY           SKY/WX    TMP DP  RH WIND       PRES   REMARKS
AGUASCALIENTES PTSUNNY   68  52  56 CALM      30.18S
COLIMA         PTSUNNY   84  66  54 W14       29.94S
DEL BAJIO        N/A    N/A N/A N/A MISG        N/A
GUADALAJARA    MOSUNNY   82  52  34 SW6       30.07S
MANZANILLO     MOSUNNY   90  77  66 W8        29.77R HX 102
MAZATLAN       PTSUNNY   88  72  58 W12       29.81R HX  94
P. VALLARTA    MOSUNNY   88  79  74 SW9       29.80S HX 102
URUAPAN        PTSUNNY   75  61  60 CALM      30.12R
ZACATECAS      CLOUDY    61  55  82 NE7       30.28R

CENTRAL MEXICO

CITY           SKY/WX    TMP DP  RH WIND       PRES   REMARKS
CUERNAVACA     PTSUNNY   77  63  61 CALM      30.05F
MEXICO CITY    CLOUDY    61  52  72 NE7       30.26S
MORELIA        PTSUNNY   70  61  73 SW5       30.15S
POZA RICA      CLOUDY    84  73  70 SE9       29.94F HX  91
PUEBLA         PTSUNNY   68  48  49 S6        30.27R
QUERETARO      CLOUDY    64  57  77 N17G32    30.25R
S. LUIS POTOSI CLOUDY    68  55  64 N10       30.18F
TAMPICO        CLOUDY    75  72  88 NW9       29.95S
TOLUCA         TSTM      59  54  82 NW7       30.35R

SOUTHERN MEXICO

CITY           SKY/WX    TMP DP  RH WIND       PRES   REMARKS
ACAPULCO       MOSUNNY   90  77  66 SW5       29.80R HX 102
B. DE HUATULCO RAIN      75  72  88 N9        29.91S
OAXACA         TSTM      66  59  77 SE15      30.11R
P. ESCONDIDO   CLOUDY    81  72  74 NE14      29.93S
VERACRUZ       PTSUNNY   82  75  78 E8        29.90R
ZIHUATANEJO    PTSUNNY   91  77  62 SW5       29.80R HX 105

YUCATAN PENINSULA

CITY           SKY/WX    TMP DP  RH WIND       PRES   REMARKS
CAMPECHE       MOCLDY    90  70  51 SE12      29.89R HX  95
CANCUN         PTCLDY    84  79  84 E7        29.99F HX  96
CHETUMAL       MOCLDY    86  77  74 E12       29.95R HX  97
CD. DEL CARMEN CLOUDY    86  77  74 N16       29.87S HX  97
COZUMEL        MOCLDY    73  73 100 CALM      29.99F
MERIDA         CLOUDY    90  77  66 NE8       29.93F HX 102
MINATITLAN     CLOUDY    82  68  61 N14       29.82R
TAPACHULA      MOCLDY    88  79  74 SW7       29.83R HX 102
TUX. GUTIERREZ PTSUNNY   84  68  58 NW7       29.88R
VILLAHERMOSA   MOSUNNY   91  68  46 E16       29.85S HX  95

CENTRAL AMERICA

CITY           SKY/WX    TMP DP  RH WIND       PRES   REMARKS
BELIZE CITY    PTCLDY    84  79  84 E8        29.94R HX  96
MANAGUA        PTCLDY    88  73  62 E12       29.80R HX  96

CARIBBEAN

CITY           SKY/WX    TMP DP  RH WIND       PRES   REMARKS
ARUBA          PTCLDY    82  77  83 E22G33    29.89S HX  91
CURACAO          N/A     81  75  83 E15       29.94S
KINGSTON       PTCLDY    86  73  66 SE25      29.94R HX  93
NASSAU         MOCLDY    86  77  74 E7        30.12R HX  97
SAN JUAN       PTCLDY    82  73  74 E10       30.08R
SANTO DOMINGO  LGT RAIN  79  77  94 N12       30.03S
ST. CROIX      PTCLDY    81  72  74 E10       30.07
ST. KITTS      PTCLDY    81  73  78 NE18      30.06S
ST. MAARTEN    PTCLDY    82  72  69 E12       30.06S
ST. THOMAS     MOCLDY    82  72  69 E14       30.07

$$



USA.gov is the U.S. government's official web portal to all federal, state and local government web resources and services.